RH
8 8 8 7 7 7 7 7 7 7 6 6 5 5 5 5 5 5 4 4 4 4 4 4 4 4 4 4 4 3 4 5 5 7 10 13 14 18 21 23 23 22 24 22 23 25 28 40 48 54 62 59 55 56 57 57 56 56 56 58 55 54 56 55 58 59 60 59 59 60 62 68 72 74 78 80 82 83 83 81 81 79 76 73 73 73 75 78
8 8 8 8 8 8 8 7 7 7 7 6 6 5 5 5 5 4 4 4 4 5 4 4 4 4 4 4 4 3 3 4 4 6 9 11 13 17 19 21 21 21 22 22 21 22 26 37 47 55 60 58 55 56 55 53 52 53 56 57 52 51 50 49 52 53 55 57 57 58 59 63 68 70 71 77 80 79 79 79 81 81 78 75 74 74 74 76
8 8 8 8 8 8 8 8 7 7 7 7 6 5 5 4 5 4 5 5 5 5 4 5 4 4 4 4 4 3 4 3 3 5 7 10 14 15 18 21 21 20 22 22 21 24 31 41 48 53 58 57 55 54 52 50 49 48 51 53 50 49 47 46 49 50 51 54 56 57 56 59 63 64 67 74 77 76 75 75 77 81 79 78 77 76 75 75
7 7 7 7 8 8 8 8 8 8 7 7 7 6 6 5 4 4 5 5 5 5 4 5 4 4 4 4 4 4 4 3 3 5 6 9 13 14 17 21 21 21 21 21 22 25 32 41 44 48 53 54 53 52 51 47 46 46 48 50 47 48 49 46 47 48 49 53 55 54 54 57 59 61 65 69 74 75 74 71 73 78 79 79 79 78 77 76
7 7 7 7 7 7 7 8 8 8 8 8 7 7 6 5 4 4 4 5 5 5 5 5 5 4 4 4 4 5 4 3 4 5 6 9 10 12 16 19 20 20 21 20 21 24 31 38 42 45 47 50 50 50 50 46 44 45 45 46 46 48 49 46 47 48 50 53 54 54 53 52 53 58 63 66 72 73 69 67 70 74 76 79 79 78 78 77
7 7 7 7 6 6 6 7 7 7 8 8 8 7 7 6 5 5 5 5 5 5 5 5 5 4 5 5 6 5 4 3 6 6 5 8 8 10 14 17 18 19 20 19 20 25 31 36 41 45 46 47 48 47 47 45 44 45 43 43 44 46 46 45 47 49 49 52 54 54 51 48 49 53 56 59 63 66 64 63 67 70 74 77 77 77 76 75
7 6 6 6 6 6 6 6 5 6 6 7 7 8 7 7 6 6 5 5 5 4 5 5 5 5 6 7 5 5 4 4 6 6 5 6 7 8 11 14 17 18 20 19 20 25 29 33 38 43 43 42 44 45 46 43 43 44 43 44 44 44 45 44 45 47 47 51 52 51 51 49 49 49 52 53 54 57 61 62 65 67 72 75 75 76 76 75
7 7 7 6 6 6 6 6 5 5 5 5 6 7 7 7 7 6 6 6 5 5 5 5 5 5 6 7 5 4 4 3 6 6 5 6 7 8 9 12 16 17 19 20 20 23 27 29 33 38 39 37 41 46 45 42 42 43 43 44 45 46 46 45 45 46 46 49 50 50 52 52 50 48 50 53 53 55 61 63 64 67 69 72 73 74 75 74
7 7 7 6 6 6 6 5 5 5 5 5 5 5 6 7 7 7 7 6 5 5 5 5 5 6 7 7 5 4 4 4 4 5 4 5 7 8 9 11 14 17 19 20 20 23 27 28 30 34 35 34 39 45 43 42 42 42 42 45 45 46 47 46 45 45 45 46 47 50 53 52 51 48 48 52 54 55 59 62 63 66 67 69 70 70 71 69
7 7 7 7 6 6 6 6 5 5 5 5 5 4 5 5 6 7 8 8 6 6 5 5 5 6 7 7 5 4 6 6 4 4 4 4 6 8 8 10 13 16 18 19 20 24 26 28 29 31 32 33 38 42 42 44 43 41 43 45 45 46 47 46 45 44 45 46 46 52 54 51 49 49 48 50 53 53 57 60 61 62 64 64 67 68 69 68
7 6 6 6 6 6 6 6 5 5 5 5 5 5 4 4 5 6 7 8 7 7 6 5 5 6 7 7 5 5 8 9 6 5 6 6 7 7 8 9 11 15 16 18 20 23 24 26 28 29 31 32 35 40 41 44 43 41 43 46 45 46 45 46 47 44 44 48 49 53 55 52 49 49 47 46 50 52 54 58 59 59 59 59 62 64 66 67
7 7 6 6 6 6 6 6 5 5 5 5 5 5 4 4 4 4 7 8 8 7 7 6 6 6 7 7 5 4 7 9 7 6 6 7 8 8 8 8 10 12 15 16 20 22 23 25 26 26 28 29 34 41 42 43 44 42 43 45 44 44 45 47 48 45 44 48 50 52 57 57 54 50 47 46 48 51 54 56 56 56 57 56 57 60 62 64
7 7 7 7 6 6 6 6 5 5 5 5 5 5 5 4 4 4 6 7 8 8 7 7 7 7 7 7 5 4 5 7 8 8 7 8 8 8 7 7 9 10 13 16 19 21 22 24 24 23 25 26 33 41 41 41 43 44 43 45 43 43 47 47 47 47 45 47 48 52 57 59 58 52 49 51 48 50 55 57 56 55 55 55 55 57 58 59
8 8 7 7 7 7 6 6 6 6 5 5 5 5 5 5 4 4 5 7 7 7 8 8 7 8 9 6 4 5 5 5 7 7 8 9 8 7 6 6 8 9 11 14 18 21 21 22 22 21 23 25 30 37 38 37 42 45 43 44 44 43 47 47 47 49 47 47 49 51 55 58 59 53 49 51 51 50 54 56 58 58 56 54 54 56 56 55
9 9 8 8 8 7 7 6 6 6 5 5 5 5 6 5 5 4 4 6 7 7 7 8 9 11 12 8 4 5 6 6 6 6 8 9 8 6 5 5 7 9 11 14 17 20 20 19 19 19 22 22 24 33 38 36 43 47 42 43 45 42 45 47 47 48 46 47 49 50 54 57 57 54 49 49 51 52 52 54 55 57 57 54 53 55 55 54
10 9 9 9 8 8 8 7 7 6 6 5 5 6 7 5 5 5 5 8 9 8 6 9 14 14 13 10 5 6 7 7 7 6 7 8 8 6 6 5 6 9 12 14 16 19 20 17 16 18 22 21 21 29 38 38 42 45 41 42 43 41 44 47 45 44 44 46 48 49 52 54 54 52 51 51 50 52 53 54 52 54 58 56 53 55 54 55
10 10 9 9 9 9 9 9 8 7 6 6 6 7 6 6 9 10 9 10 10 8 6 9 15 15 12 10 8 7 8 8 8 7 6 7 8 7 7 5 6 10 12 15 16 17 19 18 16 18 20 21 20 26 36 41 42 43 43 43 41 39 42 45 45 43 42 43 45 48 48 49 52 51 51 52 51 51 52 53 52 53 57 59 57 58 56 55
12 11 11 10 10 9 9 9 9 8 6 6 7 6 6 8 10 11 11 10 10 10 9 9 11 12 10 8 10 10 9 10 9 8 7 6 7 7 7 6 7 10 11 14 16 16 18 18 17 18 19 19 19 27 36 40 41 42 42 40 37 37 40 42 44 42 43 44 43 47 46 45 50 52 50 50 51 53 52 52 52 52 55 58 59 60 60 58
13 13 12 12 11 10 10 10 10 9 7 7 8 7 7 8 10 11 12 11 11 11 12 11 8 9 10 10 10 10 9 10 10 8 7 6 7 7 6 7 7 8 10 13 15 16 17 18 17 18 19 18 18 26 33 34 38 40 38 37 34 35 38 38 40 40 41 43 44 45 46 46 50 50 49 50 51 53 52 52 53 53 53 55 58 63 63 60
16 15 14 13 12 12 11 11 11 9 7 8 9 8 8 9 11 13 12 12 12 12 11 10 9 9 12 12 11 11 10 10 10 9 6 5 6 6 6 9 9 9 10 13 15 16 16 18 19 16 17 16 16 23 27 27 32 36 37 36 32 33 37 36 38 39 39 42 43 44 46 49 50 48 49 50 52 52 52 53 53 54 54 52 56 62 62 57
17 17 16 15 14 13 12 12 11 10 8 9 10 9 8 10 12 13 13 12 12 12 10 9 9 10 11 12 11 11 12 11 10 9 7 6 6 7 8 10 12 11 10 12 14 15 17 18 17 15 14 14 14 20 23 23 29 31 33 36 34 34 38 37 37 39 39 42 43 44 49 51 50 49 49 50 52 52 52 53 53 56 56 53 55 60 60 57
17 17 17 17 16 15 14 13 12 11 9 10 10 9 10 12 12 12 12 12 11 10 10 9 9 9 10 11 10 11 13 11 10 8 7 7 9 10 12 12 14 13 10 12 15 16 18 16 14 13 12 13 15 21 23 24 27 28 30 34 34 35 36 34 35 39 39 41 44 45 49 52 50 49 49 51 53 53 52 51 51 55 58 56 55 57 61 60
16 16 16 16 16 16 16 14 13 11 10 10 9 9 12 12 11 11 11 12 11 9 8 8 8 8 9 10 9 10 12 12 10 8 7 9 11 12 14 14 14 13 11 13 15 17 17 13 12 12 11 15 20 24 25 24 25 27 30 33 33 33 32 31 34 37 38 39 43 49 54 54 50 48 49 51 52 54 54 52 50 51 55 57 55 56 59 61
16 16 16 16 16 16 16 16 15 13 11 10 9 11 14 12 11 12 11 11 11 8 7 7 7 7 8 9 9 9 12 11 10 9 9 11 13 12 14 15 15 14 12 12 13 14 13 10 11 13 12 16 21 25 27 26 26 26 28 31 31 31 29 29 32 35 39 39 42 52 57 55 51 47 49 50 51 54 54 54 54 53 53 56 57 56 58 59
17 17 16 16 16 15 16 16 16 15 13 11 12 13 13 12 11 12 12 12 14 11 8 9 8 7 7 9 9 9 10 10 10 11 10 11 13 13 13 14 15 14 12 10 11 13 11 9 12 14 14 16 18 22 25 27 27 26 26 27 28 29 28 29 33 35 41 43 43 47 49 50 52 49 49 51 52 55 55 56 58 56 55 56 58 59 58 56
17 17 16 15 15 15 15 15 16 16 15 17 16 13 12 12 11 11 13 17 18 14 10 12 12 8 7 9 9 9 10 11 11 11 11 12 13 13 13 13 12 12 10 9 10 11 9 8 10 12 15 16 16 18 20 23 25 25 26 26 26 28 26 27 31 35 40 42 41 40 41 46 50 46 48 51 55 58 55 55 59 58 57 59 61 62 60 56
17 17 16 16 14 14 14 15 15 16 18 21 18 14 12 11 11 11 16 25 26 19 14 14 13 10 9 9 9 9 11 11 11 11 11 11 12 12 12 12 11 9 9 9 9 9 8 9 9 9 13 15 14 14 16 19 22 25 25 25 25 25 24 24 28 31 34 35 36 36 38 45 47 45 48 52 56 59 55 55 60 59 57 59 62 63 61 57
17 17 16 16 15 14 13 14 14 15 19 22 18 15 12 11 12 13 21 33 30 21 18 15 14 14 12 11 11 10 10 10 11 12 10 11 13 12 12 11 10 9 9 9 10 8 8 8 8 9 12 14 14 13 16 18 21 24 23 23 23 22 23 24 23 26 28 29 33 35 37 42 46 48 50 53 57 58 56 55 58 59 56 58 61 62 61 60
16 16 16 16 15 14 14 14 14 15 18 20 18 16 14 13 14 15 24 33 26 18 20 18 16 17 16 16 14 12 10 10 13 13 10 12 13 13 13 12 10 10 10 10 10 9 9 8 8 10 12 13 15 15 17 20 22 24 22 22 22 22 23 22 21 24 26 26 30 34 37 42 48 50 50 53 56 56 56 55 56 57 56 57 61 61 61 61
15 16 16 16 16 15 15 14 14 15 16 17 16 16 16 15 17 22 29 31 25 22 21 20 19 17 16 17 16 15 12 10 13 13 11 13 14 14 14 14 12 11 12 12 11 10 9 9 10 10 11 12 14 17 19 20 22 23 23 23 22 22 24 25 26 26 25 28 32 33 36 42 47 50 50 51 52 51 52 54 55 56 55 56 59 60 61 61
15 15 16 16 16 16 15 14 14 15 14 14 14 15 17 16 20 28 33 28 25 25 22 21 21 18 17 16 15 16 14 11 12 12 12 13 14 15 15 16 15 13 14 13 11 11 10 10 11 10 10 10 13 18 20 20 21 21 23 23 22 24 26 28 29 25 23 30 33 32 34 38 42 45 46 47 48 48 48 50 53 55 54 55 58 61 61 60
15 15 16 16 17 17 15 15 15 14 14 13 14 16 19 21 21 25 30 27 25 26 24 23 23 21 20 17 15 15 14 13 12 12 13 13 14 16 16 17 16 14 16 15 13 12 11 11 11 10 10 10 11 14 17 17 17 19 23 24 24 26 25 27 31 29 27 31 31 32 34 37 39 41 41 42 44 46 46 47 49 53 54 54 57 60 61 60
14 15 16 16 17 18 15 15 15 14 15 16 17 17 21 27 26 24 25 25 25 27 25 23 23 23 23 20 16 14 13 13 14 14 14 14 15 16 15 16 16 14 16 15 14 14 13 11 11 10 10 10 10 12 13 14 14 16 20 21 24 25 24 28 34 33 31 31 31 32 33 36 39 40 40 40 40 43 45 46 48 51 53 53 55 57 59 59
14 15 16 17 18 18 15 15 16 15 17 19 19 20 24 27 27 24 24 24 25 26 24 22 23 24 24 21 17 15 13 14 14 14 15 15 16 17 16 16 16 15 15 14 14 15 16 14 13 11 10 10 10 12 13 15 15 16 17 18 21 22 21 25 30 29 29 29 29 31 34 36 38 39 39 39 40 44 45 46 48 51 52 52 54 57 59 59
14 14 16 17 18 18 16 16 16 15 19 22 22 24 27 25 22 23 25 25 24 24 22 21 22 24 25 23 19 16 15 14 15 14 14 16 16 17 17 16 16 16 15 15 15 15 15 15 13 11 10 11 11 12 13 13 14 15 16 15 16 17 17 20 23 22 24 27 30 33 37 39 38 38 39 41 43 45 44 45 47 49 50 50 54 57 59 58
14 15 17 17 18 19 16 16 16 16 20 23 24 26 27 22 20 23 25 26 25 23 23 22 22 25 29 27 22 19 17 16 15 14 14 14 15 16 16 16 16 16 15 16 15 14 14 13 11 11 11 11 12 13 13 13 14 16 14 13 14 16 16 18 21 21 21 26 31 36 40 42 41 42 42 43 45 44 43 44 46 47 47 49 53 56 58 57
15 16 17 19 19 18 18 16 16 18 22 24 26 29 26 19 17 21 25 27 25 22 26 29 26 28 32 30 25 24 24 21 17 16 16 15 16 16 16 15 15 15 14 15 14 15 15 13 12 12 12 13 13 14 15 13 13 14 12 12 15 16 17 19 22 25 25 27 31 36 41 42 42 45 44 43 44 43 43 44 46 46 45 47 53 55 56 57
16 17 20 21 20 18 19 19 19 20 24 26 28 30 26 19 17 19 22 25 25 24 29 31 28 29 31 29 28 28 27 25 21 20 18 17 17 18 18 17 16 15 14 14 14 15 15 14 13 12 12 14 14 14 15 13 12 11 10 13 16 16 18 21 22 24 27 29 31 35 40 40 39 41 41 41 43 42 43 45 46 46 44 46 53 56 57 59
18 18 21 23 20 18 19 21 21 22 25 28 30 28 24 20 18 20 22 25 25 26 28 29 27 27 27 27 30 32 29 26 24 22 20 20 19 19 19 19 17 16 15 14 14 14 15 15 14 14 14 14 14 13 14 13 12 11 10 13 15 15 19 21 21 23 29 34 36 36 38 39 37 38 38 40 41 41 43 44 46 46 46 47 53 57 59 59
20 22 25 24 20 18 21 22 24 25 27 29 28 25 23 20 19 21 23 26 28 30 31 29 26 26 25 25 30 35 33 29 26 24 22 21 20 20 19 19 19 18 17 15 14 14 14 15 15 16 15 14 14 12 12 13 12 11 11 12 13 15 17 20 23 25 29 38 43 42 41 39 36 36 37 37 38 40 41 43 46 46 47 49 52 56 59 58
24 28 29 27 24 24 25 25 26 27 27 27 25 24 23 22 20 22 23 26 30 31 31 29 26 26 26 25 29 37 39 35 32 30 26 23 21 20 20 19 19 19 19 17 14 14 14 14 15 17 16 16 14 13 12 12 13 12 11 11 13 15 17 21 27 28 28 34 39 40 41 39 36 35 36 36 37 39 40 42 45 46 46 49 52 54 56 56
30 33 31 28 29 30 30 30 28 27 26 26 25 23 23 22 21 22 25 28 29 28 28 28 27 26 26 25 27 35 40 39 37 35 32 28 24 23 23 22 20 19 20 19 16 14 14 14 16 17 18 16 13 13 12 11 12 13 11 10 12 16 18 20 27 30 28 29 32 37 40 38 37 36 36 37 37 36 38 40 43 44 45 49 51 52 54 55
36 36 30 30 32 31 34 37 33 28 26 24 23 22 23 24 23 23 26 31 31 28 28 28 26 27 28 26 26 32 39 40 39 38 35 32 28 26 26 26 22 20 20 18 17 16 16 14 16 20 22 19 14 13 13 11 12 13 13 10 11 15 17 18 24 28 27 27 31 39 42 39 38 38 36 37 36 35 37 39 40 42 43 47 50 52 54 55
38 38 32 33 36 34 35 39 38 33 29 26 25 25 26 27 27 26 29 33 33 30 30 29 26 26 27 26 26 31 37 40 41 40 36 34 31 28 28 26 24 22 20 18 17 17 16 16 17 20 21 19 17 15 14 12 12 13 14 11 10 15 15 15 19 20 21 24 28 35 39 37 38 39 37 36 36 36 38 39 39 40 42 45 47 49 52 54
37 39 37 37 39 37 34 36 37 35 32 30 30 28 27 27 27 28 31 35 35 32 32 32 30 26 26 26 27 30 34 39 43 40 36 35 32 29 28 26 25 24 22 19 17 16 17 18 18 19 19 19 19 20 19 16 14 14 15 13 10 13 13 13 15 15 17 23 26 28 34 37 39 39 38 37 37 38 39 38 39 40 41 43 44 45 48 50
36 40 41 42 42 38 35 34 35 35 34 32 31 29 29 28 28 29 31 35 36 34 34 36 33 31 30 31 31 33 34 37 42 41 36 36 34 32 30 28 27 26 25 22 18 17 19 19 18 19 19 18 18 22 23 19 15 14 15 14 12 11 10 12 14 14 18 22 24 27 32 35 37 38 38 38 37 37 38 36 36 38 39 41 41 42 44 46
38 40 42 46 46 42 39 37 36 36 35 34 34 34 33 32 32 31 33 35 36 36 38 39 37 37 38 38 38 39 37 37 41 43 38 36 37 35 33 30 27 25 25 24 21 20 20 20 19 18 18 16 17 20 21 18 16 15 15 15 14 10 9 11 12 14 18 19 22 31 33 31 34 36 36 36 34 35 35 34 34 35 36 39 40 39 41 43
38 40 41 46 48 45 44 41 38 36 36 36 38 40 38 36 35 36 38 38 37 38 41 42 41 42 42 40 40 41 39 38 42 45 41 38 39 38 36 34 29 25 25 25 23 22 21 21 19 17 16 17 17 19 20 18 17 16 15 15 15 13 11 11 12 15 17 17 22 31 31 28 31 33 31 32 31 32 33 32 32 33 34 37 39 39 39 39
37 41 43 45 47 47 45 43 41 39 38 39 42 42 40 39 39 39 40 41 40 42 43 45 46 44 44 43 44 44 43 41 44 47 44 41 41 39 38 37 32 26 25 26 25 24 22 23 24 19 16 18 18 19 19 18 17 17 16 15 16 15 13 12 12 13 16 18 22 27 28 28 28 28 29 30 30 31 33 32 32 32 33 36 40 40 40 39
36 40 44 47 49 48 46 45 46 45 42 41 44 44 41 42 43 42 41 43 46 47 46 48 50 47 47 48 48 49 48 43 45 50 48 44 43 40 39 39 35 30 27 27 27 25 23 26 28 22 17 19 21 21 21 19 19 19 17 16 16 15 14 13 13 14 18 22 23 25 28 29 27 27 29 31 31 32 33 33 33 33 33 35 39 40 41 40
33 36 42 48 51 50 49 49 49 49 46 44 44 44 44 44 43 42 44 47 49 51 51 52 52 50 50 51 50 51 51 47 48 51 51 49 46 42 40 38 35 33 32 29 29 28 26 27 29 23 20 21 23 24 23 22 21 21 18 17 17 15 15 15 15 15 19 24 25 27 28 28 28 29 31 32 32 33 34 33 33 34 34 35 37 39 40 41
30 31 35 43 50 52 51 51 50 50 49 46 44 45 47 48 44 43 48 51 50 52 55 56 54 54 55 56 55 54 54 53 50 47 47 49 47 43 40 37 33 32 33 32 32 30 28 29 30 26 23 23 25 26 24 23 23 24 21 19 18 17 16 17 17 18 20 23 25 26 26 29 31 32 32 35 35 34 35 34 33 35 35 36 38 40 41 41